Location: Slidell
(30.2789°N, 89.7378°W)
Time: 00:54:49
(UTC-06:00)

Cosmos 2360 Rocket - Visible Passes

Search period start: 17 January 2017 00:00
Search period end: 27 January 2017 00:00
Orbit: 836 x 843 km, 71.0° (Epoch: 17 January)

Date Brightness Start Highest point End Pass type
(mag) Time Alt. Az. Time Alt. Az. Time Alt. Az.
17 Jan 5.1 18:25:57 10° WNW 18:26:18 10° NW 18:26:38 10° NW visible
18 Jan 4.9 18:09:04 10° WNW 18:10:34 11° WNW 18:12:03 10° NW visible
19 Jan 4.8 17:52:47 10° WNW 17:54:51 12° WNW 17:56:53 10° NW visible
